TimeCDT,TemperatureF,Dew PointF,Humidity,Sea Level PressureIn,VisibilityMPH,Wind Direction,Wind SpeedMPH,Gust SpeedMPH,PrecipitationIn,Events,Conditions,WindDirDegrees,DateUTC
12:53 AM,66.9,48.0,51,29.94,10.0,South,13.8,20.7,N/A,,Mostly Cloudy,190,2013-09-14 05:53:00
1:53 AM,66.0,48.0,52,29.93,10.0,South,12.7,-,N/A,,Partly Cloudy,170,2013-09-14 06:53:00
2:53 AM,66.0,48.9,54,29.91,10.0,South,16.1,-,N/A,,Overcast,170,2013-09-14 07:53:00
3:53 AM,66.0,48.9,54,29.88,10.0,South,18.4,25.3,N/A,,Overcast,180,2013-09-14 08:53:00
4:53 AM,66.9,48.9,52,29.86,10.0,South,15.0,23.0,N/A,,Overcast,180,2013-09-14 09:53:00
5:53 AM,66.0,48.9,54,29.83,10.0,South,18.4,26.5,N/A,,Overcast,180,2013-09-14 10:53:00
6:53 AM,66.0,48.9,54,29.82,10.0,South,23.0,31.1,0.00,,Overcast,170,2013-09-14 11:53:00
7:53 AM,64.0,51.1,63,29.84,10.0,South,13.8,-,0.00,,Overcast,190,2013-09-14 12:53:00
8:53 AM,64.9,51.1,61,29.83,10.0,South,19.6,27.6,N/A,,Scattered Clouds,190,2013-09-14 13:53:00
9:53 AM,66.9,51.1,57,29.83,10.0,South,18.4,27.6,N/A,,Partly Cloudy,190,2013-09-14 14:53:00
10:53 AM,71.1,53.1,53,29.81,10.0,SSW,20.7,29.9,N/A,,Clear,200,2013-09-14 15:53:00
11:53 AM,77.0,55.9,48,29.78,10.0,SSW,20.7,29.9,N/A,,Partly Cloudy,200,2013-09-14 16:53:00
12:53 PM,79.0,57.9,48,29.76,10.0,SSW,20.7,27.6,N/A,,Clear,210,2013-09-14 17:53:00
1:53 PM,82.9,59.0,44,29.73,10.0,SSW,17.3,26.5,N/A,,Clear,210,2013-09-14 18:53:00
2:53 PM,84.9,59.0,41,29.72,10.0,SW,18.4,26.5,N/A,,Clear,230,2013-09-14 19:53:00
3:53 PM,84.0,59.0,43,29.72,10.0,SSW,18.4,26.5,N/A,,Clear,200,2013-09-14 20:53:00
4:53 PM,84.0,59.0,43,29.70,10.0,South,17.3,-,N/A,,Clear,190,2013-09-14 21:53:00
5:53 PM,84.0,59.0,43,29.69,10.0,SSW,17.3,-,N/A,,Partly Cloudy,200,2013-09-14 22:53:00
6:53 PM,81.0,59.0,47,29.71,10.0,SSW,11.5,-,N/A,,Partly Cloudy,210,2013-09-14 23:53:00
7:53 PM,80.1,60.1,50,29.73,10.0,West,12.7,-,N/A,,Mostly Cloudy,270,2013-09-15 00:53:00
8:53 PM,77.0,60.1,56,29.77,10.0,NNW,13.8,-,N/A,,Overcast,340,2013-09-15 01:53:00
9:53 PM,71.1,60.1,68,29.82,10.0,NNW,21.9,-,N/A,,Mostly Cloudy,340,2013-09-15 02:53:00
10:53 PM,66.9,60.1,79,29.87,10.0,North,17.3,-,N/A,,Overcast,360,2013-09-15 03:53:00
10:59 PM,66.2,60.8,83,29.90,10.0,North,15.0,-,N/A,,Overcast,350,2013-09-15 03:59:00
11:39 PM,64.4,60.8,88,29.92,9.0,North,13.8,-,0.00,Rain,Light Rain,350,2013-09-15 04:39:00
11:49 PM,62.6,62.6,100,29.93,8.0,North,15.0,-,0.00,Rain,Light Rain,350,2013-09-15 04:49:00
11:53 PM,63.0,61.0,93,29.90,10.0,North,13.8,-,0.00,Rain,Light Rain,350,2013-09-15 04:53:00